Weather History for Chicopee, MA

Change the Weather History Date:

Tuesday, May 7, 2013

  Actual Average Record
Temperature  
Mean Temperature 59 °F -  
Max Temperature 80 °F 66 °F 91 °F (2000)
Min Temperature 39 °F 44 °F 28 °F (2001)
Degree Days  
Heating Degree Days 6    
Growing Degree Days 9 (Base 50)    
Moisture  
Dew Point 44 °F    
Average Humidity 89    
Maximum Humidity 100    
Minimum Humidity 33    
Precipitation  
Precipitation 0.00 in - - ()
Sea Level Pressure  
Sea Level Pressure 30.15 in    
Wind  
Wind Speed 3 mph (NE)    
Max Wind Speed 15 mph    
Max Gust Speed -    
Visibility 3 miles    
Events Fog    
Averages and records for this station are not official NWS values.
T = Trace of Precipitation, MM = Missing Value Source: NWS Daily Summary

Daily Weather History Graph

Daily Weather History Graph

Search for Another Location

Airport:

Trip Planner

Search our weather history database for the weather conditions in past years. The results will help you decide how hot, cold, wet, or windy it might be!

Date:

Astronomy

May. 07, 2013 Rise Set
Actual Time 5:37 AM EDT 7:56 PM EDT
Civil Twilight 5:06 AM EDT 8:27 PM EDT
Nautical Twilight 4:28 AM EDT 9:06 PM EDT
Astronomical Twilight 3:45 AM EDT 9:49 PM EDT
Moon 4:12 AM EDT (5/7) 5:51 PM EDT (5/7)
Length of Visible Light 15h 20m
Length of Day
14h 18m
Waning Crescent, 5% of the Moon is Illuminated
May 7
Waning Crescent
May 9
New
May 18
First Quarter
May 25
Full
May 31
Last Quarter

Hourly Weather History & Observations

Time (EDT) Temp. Windchill Dew Point Humidity Pressure Visibility Wind Dir Wind Speed Gust Speed Precip Events Conditions
12:58 AM 52.2 °F - 47.7 °F 85% 30.16 in 10.0 mi SSE 5.8 mph - N/A   Clear
1:58 AM 50.7 °F - 47.3 °F 88% 30.16 in 10.0 mi SSE 4.6 mph - N/A   Clear
2:58 AM 46.9 °F - 46.0 °F 97% 30.15 in 10.0 mi Calm Calm - N/A   Clear
3:13 AM 44.6 °F - 44.6 °F 100% 30.15 in 2.0 mi NNE 2.3 mph - N/A   Clear
3:14 AM 44.6 °F - 44.6 °F 100% 30.15 in 1.5 mi NNE 2.3 mph - N/A   Clear
3:15 AM 44.6 °F - 44.6 °F 100% 30.15 in 1.2 mi NNE 2.3 mph - N/A   Clear
3:16 AM 44.6 °F - 44.6 °F 100% 30.15 in 1.0 mi NE 2.3 mph - N/A   Clear
3:17 AM 44.6 °F - 44.6 °F 100% 30.15 in 1.0 mi NE 1.2 mph - N/A   Clear
3:18 AM 44.6 °F - 44.6 °F 100% 30.15 in 0.8 mi NE 1.2 mph - N/A   Clear
3:19 AM 44.6 °F - 44.6 °F 100% 30.15 in 0.8 mi NE 1.2 mph - N/A   Clear
3:21 AM 44.6 °F - 44.6 °F 100% 30.15 in 0.5 mi NE 1.2 mph - N/A Fog Fog
3:23 AM 44.6 °F - 44.6 °F 100% 30.15 in 0.8 mi NE 2.3 mph - N/A   Clear
3:25 AM 44.6 °F - 44.6 °F 100% 30.15 in 0.8 mi NE 2.3 mph - N/A   Clear
3:27 AM 44.6 °F 43.1 °F 42.8 °F 93% 30.15 in 1.0 mi NNE 3.5 mph - N/A   Clear
3:28 AM 44.6 °F 43.1 °F 42.8 °F 93% 30.15 in 1.0 mi NNE 3.5 mph - N/A   Clear
3:29 AM 44.6 °F 43.1 °F 42.8 °F 93% 30.15 in 1.0 mi NNE 3.5 mph - N/A   Clear
3:32 AM 42.8 °F 41.1 °F 42.8 °F 100% 30.15 in 0.8 mi NNE 3.5 mph - N/A   Clear
3:33 AM 42.8 °F 41.1 °F 42.8 °F 100% 30.15 in 0.8 mi NNE 3.5 mph - N/A   Clear
3:34 AM 42.8 °F 41.1 °F 42.8 °F 100% 30.15 in 0.8 mi NNE 3.5 mph - N/A   Clear
3:35 AM 44.6 °F 43.1 °F 42.8 °F 93% 30.15 in 0.5 mi NNE 3.5 mph - N/A Fog Fog
3:38 AM 44.6 °F - 42.8 °F 93% 30.15 in 0.5 mi NNE 2.3 mph - N/A Fog Fog
3:39 AM 44.6 °F - 42.8 °F 93% 30.15 in 0.5 mi NNE 2.3 mph - N/A Fog Fog
3:43 AM 44.6 °F 43.1 °F 44.6 °F 100% 30.15 in 0.5 mi NNE 3.5 mph - N/A Fog Fog
3:51 AM 44.6 °F 43.1 °F 42.8 °F 93% 30.15 in 0.5 mi NNE 3.5 mph - N/A Fog Fog
3:58 AM 44.2 °F - 43.9 °F 99% 30.15 in 0.5 mi NNE 2.3 mph - N/A Fog Fog
4:04 AM 44.6 °F - 44.6 °F 100% 30.16 in 0.8 mi NE 2.3 mph - N/A   Clear
4:05 AM 44.6 °F - 44.6 °F 100% 30.16 in 0.8 mi NE 2.3 mph - N/A   Clear
4:07 AM 44.6 °F - 44.6 °F 100% 30.16 in 1.0 mi NNE 2.3 mph - N/A   Clear
4:11 AM 42.8 °F - 42.8 °F 100% 30.16 in 0.8 mi NE 2.3 mph - N/A   Clear
4:12 AM 42.8 °F - 42.8 °F 100% 30.16 in 0.8 mi NE 2.3 mph - N/A   Clear
4:13 AM 42.8 °F - 42.8 °F 100% 30.16 in 0.8 mi NE 2.3 mph - N/A   Clear
4:15 AM 42.8 °F - 41.0 °F 93% 30.16 in 0.5 mi NE 2.3 mph - N/A Fog Fog
4:21 AM 42.8 °F - 42.8 °F 100% 30.16 in 0.8 mi ENE 1.2 mph - N/A   Clear
4:26 AM 42.8 °F - 42.8 °F 100% 30.16 in 1.0 mi Calm Calm - N/A   Clear
4:27 AM 42.8 °F - 42.8 °F 100% 30.16 in 1.0 mi Calm Calm - N/A   Clear
4:28 AM 42.8 °F - 42.8 °F 100% 30.16 in 1.0 mi Calm Calm - N/A   Clear
4:29 AM 42.8 °F - 42.8 °F 100% 30.16 in 1.2 mi Calm Calm - N/A   Clear
4:32 AM 42.8 °F - 42.8 °F 100% 30.16 in 1.0 mi Calm Calm - N/A   Clear
4:33 AM 42.8 °F - 42.8 °F 100% 30.16 in 1.0 mi Calm Calm - N/A   Clear
4:36 AM 41.0 °F - 41.0 °F 100% 30.16 in 0.8 mi Calm Calm - N/A   Clear
4:49 AM 41.0 °F - 41.0 °F 100% 30.16 in 1.0 mi Calm Calm - N/A   Clear
4:50 AM 41.0 °F - 41.0 °F 100% 30.16 in 1.0 mi Calm Calm - N/A   Clear
4:51 AM 41.0 °F - 41.0 °F 100% 30.16 in 1.0 mi Calm Calm - N/A   Clear
4:53 AM 41.0 °F - 41.0 °F 100% 30.16 in 1.2 mi NE 1.2 mph - N/A   Clear
4:54 AM 41.0 °F - 41.0 °F 100% 30.16 in 1.2 mi NE 2.3 mph - N/A   Clear
4:55 AM 41.0 °F - 41.0 °F 100% 30.16 in 1.5 mi NE 2.3 mph - N/A   Clear
4:56 AM 41.0 °F - 41.0 °F 100% 30.16 in 1.2 mi NNE 2.3 mph - N/A   Clear
4:57 AM 41.0 °F 39.0 °F 41.0 °F 100% 30.16 in 1.0 mi NNE 3.5 mph - N/A   Clear
4:58 AM 41.0 °F - 41.0 °F 100% 30.16 in 1.0 mi NE 2.3 mph - N/A   Clear
4:59 AM 41.0 °F - 41.0 °F 100% 30.16 in 0.8 mi NE 2.3 mph - N/A   Clear
5:00 AM 41.0 °F - 41.0 °F 100% 30.16 in 0.8 mi NE 2.3 mph - N/A   Clear
5:02 AM 41.0 °F 39.0 °F 39.2 °F 93% 30.16 in 0.8 mi NE 3.5 mph - N/A   Clear
5:04 AM 41.0 °F 39.0 °F 41.0 °F 100% 30.16 in 0.8 mi NE 3.5 mph - N/A   Clear
5:10 AM 41.0 °F 39.0 °F 39.2 °F 93% 30.16 in 0.5 mi NNE 3.5 mph - N/A Fog Fog
5:13 AM 39.2 °F 37.0 °F 39.2 °F 100% 30.16 in 0.5 mi NNE 3.5 mph - N/A Fog Fog
5:14 AM 39.2 °F 37.0 °F 39.2 °F 100% 30.16 in 0.5 mi NNE 3.5 mph - N/A Fog Fog
5:15 AM 39.2 °F 37.0 °F 39.2 °F 100% 30.16 in 0.2 mi NNE 3.5 mph - N/A Fog Fog
5:19 AM 39.2 °F 37.0 °F 39.2 °F 100% 30.16 in 0.2 mi NNE 3.5 mph - N/A Fog Fog
5:26 AM 39.2 °F 37.0 °F 39.2 °F 100% 30.16 in 0.2 mi NE 3.5 mph - N/A Fog Fog
5:34 AM 39.2 °F 37.0 °F 37.4 °F 93% 30.16 in 0.2 mi NNE 3.5 mph - N/A Fog Fog
5:47 AM 41.0 °F 39.0 °F 39.2 °F 93% 30.16 in 0.2 mi NE 3.5 mph - N/A Fog Fog
5:51 AM 41.0 °F 39.0 °F 41.0 °F 100% 30.16 in 0.2 mi ENE 3.5 mph - N/A Fog Fog
5:52 AM 41.0 °F 39.0 °F 41.0 °F 100% 30.16 in 0.2 mi ENE 3.5 mph - N/A Fog Fog
5:54 AM 42.8 °F - 41.0 °F 93% 30.16 in 0.5 mi ENE 2.3 mph - N/A Fog Fog
5:58 AM 42.8 °F - 41.0 °F 93% 30.16 in 0.8 mi Calm Calm - N/A   Clear
5:59 AM 42.8 °F - 41.0 °F 93% 30.16 in 1.5 mi Calm Calm - N/A   Clear
6:00 AM 41.0 °F - 41.0 °F 100% 30.16 in 2.5 mi Calm Calm - N/A   Clear
6:01 AM 41.0 °F - 41.0 °F 100% 30.16 in 4.0 mi NNE 1.2 mph - N/A   Clear
6:04 AM 41.0 °F - 41.0 °F 100% 30.16 in 2.5 mi Calm Calm - N/A   Clear
6:05 AM 41.0 °F - 41.0 °F 100% 30.16 in 2.0 mi Calm Calm - N/A   Clear
6:06 AM 41.0 °F - 41.0 °F 100% 30.16 in 1.8 mi Calm Calm - N/A   Clear
6:07 AM 41.0 °F - 41.0 °F 100% 30.16 in 2.0 mi Calm Calm - N/A   Clear
6:09 AM 41.0 °F - 41.0 °F 100% 30.16 in 1.8 mi Calm Calm - N/A   Clear
6:13 AM 41.0 °F - 39.2 °F 93% 30.16 in 2.0 mi Calm Calm - N/A   Clear
6:14 AM 41.0 °F - 39.2 °F 93% 30.16 in 3.0 mi Calm Calm - N/A   Clear
6:58 AM 45.7 °F - 45.3 °F 99% 30.17 in 10.0 mi Calm Calm - N/A   Clear
7:58 AM 53.6 °F - 48.2 °F 82% 30.17 in 10.0 mi Variable 1.2 mph - N/A   Clear
8:58 AM 59.9 °F - 49.3 °F 68% 30.17 in 10.0 mi Variable 2.3 mph - N/A   Clear
9:58 AM 64.6 °F - 49.1 °F 57% 30.16 in 10.0 mi Variable 2.3 mph - N/A   Clear
10:55 AM 68.9 °F - 49.6 °F 50% 30.17 in 10.0 mi South 5.8 mph - N/A   Clear
10:59 AM 69.8 °F - 50.0 °F 49% 30.16 in 10.0 mi Variable 2.3 mph - N/A   Clear
11:55 AM 72.1 °F - 47.8 °F 42% 30.15 in 10.0 mi SSW 5.8 mph - N/A   Clear
11:58 AM 72.1 °F - 47.8 °F 42% 30.15 in 10.0 mi SSW 5.8 mph - N/A   Clear
12:58 PM 75.0 °F - 48.6 °F 39% 30.13 in 10.0 mi Variable 6.9 mph - N/A   Clear
1:58 PM 77.2 °F - 48.6 °F 36% 30.11 in 10.0 mi WSW 8.1 mph - N/A   Clear
2:58 PM 78.6 °F - 46.9 °F 33% 30.08 in 10.0 mi WSW 5.8 mph - N/A   Clear
3:58 PM 79.0 °F - 48.4 °F 34% 30.07 in 10.0 mi WSW 8.1 mph - N/A   Partly Cloudy
4:58 PM 79.7 °F - 50.5 °F 36% 30.06 in 10.0 mi South 6.9 mph - N/A   Clear
5:58 PM 76.1 °F - 55.4 °F 49% 30.07 in 6.0 mi South 15.0 mph - N/A   Haze
6:58 PM 72.5 °F - 55.6 °F 55% 30.08 in 7.0 mi South 12.7 mph - N/A   Clear
7:58 PM 69.3 °F - 55.0 °F 60% 30.11 in 4.0 mi South 11.5 mph - N/A   Haze
8:58 PM 66.6 °F - 54.5 °F 65% 30.13 in 7.0 mi South 10.4 mph - N/A   Clear
9:58 PM 63.1 °F - 55.2 °F 75% 30.15 in 6.0 mi South 6.9 mph - N/A   Haze
10:58 PM 61.3 °F - 55.4 °F 81% 30.15 in 10.0 mi SSE 4.6 mph - N/A   Clear
11:58 PM 59.7 °F - 55.4 °F 86% 30.16 in 10.0 mi SE 1.2 mph - N/A   Clear